Location: Fontevrault
(47.1823°N, 0.0493°E)
Time: 15:33:33
(UTC+00:00)

Lacrosse 5 rocket - Pass Details

Date: 16 June 2021
Orbit: 460 x 633 km, 57.0° (Epoch: 04 August)

Event Time Altitude Azimuth Distance (km) Brightness Sun altitude
Rises 22:25:55 0° 233° (SW) 2,528 4.6 -16.3°
Reaches altitude 10° 22:28:06 10° 234° (SW) 1,635 3.6 -16.4°
Maximum altitude 22:31:45 81° 323° (NW) 475 1.0 -16.6°
Drops below altitude 10° 22:35:21 10° 51° (NE) 1,612 3.9 -16.9°
Sets 22:37:28 0° 52° (NE) 2,490 4.9 -17.0°
